Regional Weather Roundup
Issued by NWS

Home | Current Version | Previous Version | Text Only | Print | Product List | Glossary Off
Versions: 1 2 3 4 5 6 7 8 9 10 11 12 13 14 15 16 17 18 19 20 21 22 23 24 25 26 27 28 29 30 31 32 33 34 35 36 37 38 39 40 41 42 43 44 45 46 47 48 49 50

000
ASUS43 KOAX 260202
RWRNE

WEATHER ROUNDUP FOR NEBRASKA
NATIONAL WEATHER SERVICE OMAHA NE
900 PM CDT MON MAY 25 2015

NOTES: SATELLITE DATA IS BEING USED TO AUGMENT CLOUD COVER ABOVE
       12000 FEET.
       "FAIR" INDICATES FEW OR NO CLOUDS BELOW 12,000 FEET WITH NO
       SIGNIFICANT WEATHER AND/OR OBSTRUCTIONS TO VISIBILITY.

  * THESE STATIONS DO NOT REPORT WEATHER SUCH AS RAIN...SNOW OR FOG.

NEZ001>004-019>022-054>056-260300-
NEBRASKA PANHANDLE

CITY           SKY/WX    TMP DP  RH WIND       PRES   REMARKS
SCOTTSBLUFF    CLOUDY    54  52  93 NW6       29.89S
ALLIANCE       PTCLDY    56  52  86 W6        29.86S
CHADRON        MOCLDY    56  52  86 NW5       29.88S
SIDNEY         MOCLDY    52  49  89 NW3       29.90S
$$

NEZ057>060-069>072-079>082-260300-
SOUTHWEST NEBRASKA

CITY           SKY/WX    TMP DP  RH WIND       PRES   REMARKS
NORTH PLATTE   PTCLDY    60  52  74 N8        29.81R
IMPERIAL       PTCLDY    57  50  77 NW12      29.85R
LEXINGTON      PTCLDY    64  52  64 W8        29.78R
MCCOOK         PTCLDY    62  49  62 W8        29.81R
$$

NEZ005>010-023>029-035>040-094-260300-
NORTH CENTRAL NEBRASKA

CITY           SKY/WX    TMP DP  RH WIND       PRES   REMARKS
VALENTINE      CLOUDY    58  53  84 N7        29.83S
AINSWORTH      CLOUDY    58  55  89 N9        29.82S
BROKEN BOW     MOCLDY    65  55  70 N8        29.78R
ORD            MOCLDY    64  56  75 CALM      29.75R
$$

NEZ041-046>049-061>064-073>077-083>087-260300-
SOUTH CENTRAL NEBRASKA

CITY           SKY/WX    TMP DP  RH WIND       PRES   REMARKS
GRAND ISLAND   TSTM      63  57  81 S13G23    29.77R
HASTINGS       LGT RAIN  67  60  78 S9        29.76R
KEARNEY *      MOCLDY    70  52  52 W7        29.77R
$$

NEZ011>018-030>034-042>045-260300-
NORTHEAST NEBRASKA

CITY           SKY/WX    TMP DP  RH WIND       PRES   REMARKS
NORFOLK        PTCLDY    68  56  65 S5        29.73R
BLAIR          CLOUDY    67  58  72 S20G31    29.76R
COLUMBUS *     MOCLDY   N/A N/A N/A MISG        N/A
FREMONT        TSTM      64  59  83 E5        29.81R VSB 1/2
TEKAMAH        CLOUDY    69  61  75 S25G33    29.74R
$$

NEZ050>053-065>068-078-088>093-260300-
SOUTHEAST NEBRASKA

CITY           SKY/WX    TMP DP  RH WIND       PRES   REMARKS
LINCOLN        CLOUDY    68  54  60 S6        29.77R
OMAHA EPPLEY   CLOUDY    68  59  73 S29G39    29.75F
FALLS CITY     RAIN      61  59  93 SE8       29.84R
PLATTSMOUTH    TSTM      62  59  91 SE14      29.78F
$$

NEZ044-045-051>053-067-260300-
OMAHA AREA

CITY           SKY/WX    TMP DP  RH WIND       PRES   REMARKS
OMAHA EPPLEY   CLOUDY    68  59  73 S29G39    29.75F
BLAIR          CLOUDY    67  58  72 S20G31    29.76R
FREMONT        TSTM      64  59  83 E5        29.81R VSB 1/2
PLATTSMOUTH    TSTM      62  59  91 SE14      29.78F
$$



USA.gov is the U.S. government's official web portal to all federal, state and local government web resources and services.